Location: Austin
(30.3000°N, 97.7500°W)
Time: 21:01:45
(UTC-06:00)

Cosmos 968 Rocket - Pass Details

Date: 31 October 2024
Orbit: 738 x 767 km, 74.0° (Epoch: 05 November)

Event Time Altitude Azimuth Distance (km) Brightness Sun altitude
Rises 07:10:05 0° 348° (NNW) 3,203 6.5 -8.1°
Reaches altitude 10° 07:12:28 10° 351° (N) 2,280 5.8 -7.6°
Maximum altitude 07:17:35 63° 73° (ENE) 846 4.1 -6.6°
Drops below altitude 10° 07:22:44 10° 154° (SSE) 2,286 6.6 -5.5°
Sets 07:25:07 0° 157° (SSE) 3,211 7.3 -5.0°
